This is the latest recevied weather packets stored in our database for station/object K6GMW. If no packets are shown the sender has not sent any weather packets the latest 10 day(s).
| Time | Temp. | Humidity | Pressure | Rain* | Wind** | Luminosity | Snow |
|---|---|---|---|---|---|---|---|
| 1788060728 | 28.33° C | 54% | 1017.1 hPa | 0 mm | - | 0 W/m² | - |
| 1788060423 | 28.33° C | 54% | 1017 hPa | 0 mm | - | 0 W/m² | - |
| 1788060118 | 28.33° C | 53% | 1017.2 hPa | 0 mm | - | 0 W/m² | - |
| 1788059813 | 28.33° C | 54% | 1017 hPa | 0 mm | - | 0 W/m² | - |
| 1788059508 | 28.33° C | 53% | 1016.8 hPa | 0 mm | - | 0 W/m² | - |
| 1788059204 | 28.33° C | 52% | 1016.9 hPa | 0 mm | - | 0 W/m² | - |
| 1788058899 | 28.89° C | 52% | 1016.9 hPa | 0 mm | - | 0 W/m² | - |
| 1788058597 | 28.89° C | 52% | 1016.9 hPa | 0 mm | - | 0 W/m² | - |
| 1788058292 | 28.89° C | 51% | 1016.8 hPa | 0 mm | - | 0 W/m² | - |
| 1788057987 | 29.44° C | 50% | 1016.8 hPa | 0 mm | - | 0 W/m² | - |
| 1788057686 | 28.89° C | 51% | 1016.7 hPa | 0 mm | - | 0 W/m² | - |
| 1788057384 | 28.89° C | 52% | 1016.7 hPa | 0 mm | - | 0 W/m² | - |
| 1788057079 | 28.33° C | 52% | 1016.3 hPa | 0 mm | - | 0 W/m² | - |
| 1788056774 | 28.89° C | 52% | 1016.4 hPa | 0 mm | - | 0 W/m² | - |
| 1788056470 | 28.33° C | 53% | 1016.4 hPa | 0 mm | - | 0 W/m² | - |
| 1788056169 | 28.89° C | 53% | 1016.3 hPa | 0 mm | - | 0 W/m² | - |
| 1788055864 | 28.89° C | 52% | 1016.4 hPa | 0 mm | - | 0 W/m² | - |
| 1788055563 | 28.89° C | 51% | 1016.1 hPa | 0 mm | - | 0 W/m² | - |
| 1788055259 | 29.44° C | 51% | 1016.2 hPa | 0 mm | - | 0 W/m² | - |
| 1788054958 | 29.44° C | 50% | 1016.3 hPa | 0 mm | - | 0 W/m² | - |
| 1788054654 | 30° C | 48% | 1016.2 hPa | 0 mm | - | 0 W/m² | - |
| 1788054349 | 30° C | 47% | 1016.2 hPa | 0 mm | - | 0 W/m² | - |
| 1788054045 | 30.56° C | 46% | 1016 hPa | 0 mm | - | 0 W/m² | - |
| 1788053741 | 30.56° C | 46% | 1016 hPa | 0 mm | - | 0 W/m² | - |
| 1788053436 | 31.11° C | 45% | 1015.9 hPa | 0 mm | - | 0 W/m² | - |
* Rain latest hour (hover to see other rain measurements)
** Current wind speed in m/s (hover to see current wind gust speed)